Overview Statistics Trail Chart Weather Telemetry Raw packets
 

This is the latest recevied weather packets stored in our database for station/object KE8WMS. If no packets are shown the sender has not sent any weather packets the latest 10 day(s).

<< 99 100 101 102 103 104 105 >>
Time Temp. Humidity Pressure Rain* Wind** Luminosity Snow
1777074527 12.78° C 93% 1003.3 hPa 0 mm - 1 W/m² -
1777074224 12.78° C 93% 1003 hPa 0 mm - 3 W/m² -
1777073921 13.33° C 92% 1003.3 hPa 0 mm - 4 W/m² -
1777073616 15.56° C 89% 1003.1 hPa 0 mm - 7 W/m² -
1777073311 17.22° C 89% 1002.5 hPa 0 mm - 9 W/m² -
1777073007 18.89° C 90% 1002 hPa 0 mm - 11 W/m² -
1777072704 18.33° C 91% 1001.8 hPa 0 mm - 11 W/m² -
1777072402 18.33° C 91% 1001.5 hPa 0 mm - 10 W/m² -
1777072097 18.33° C 92% 1001.3 hPa 0 mm - 14 W/m² -
1777071794 18.89° C 91% 1001.4 hPa 0 mm - 24 W/m² -
1777071490 18.89° C 91% 1001.4 hPa 0 mm - 31 W/m² -
1777071189 18.89° C 91% 1001.3 hPa 0 mm - 37 W/m² -
1777070886 18.89° C 90% 1001.2 hPa 0 mm - 45 W/m² -
1777070583 18.89° C 90% 1001.3 hPa 0 mm - 41 W/m² -
1777070283 18.89° C 90% 1001.5 hPa 0 mm - 35 W/m² -
1777069977 18.89° C 90% 1001.6 hPa 0 mm - 34 W/m² -
1777069677 19.44° C 90% 1001.4 hPa 0 mm - 35 W/m² -
1777069372 20° C 89% 1001.6 hPa 0 mm - 57 W/m² -
1777069069 19.44° C 88% 1001.6 hPa 0 mm - 90 W/m² -
1777068765 19.44° C 89% 1001.5 hPa 0 mm - 123 W/m² -
1777068461 19.44° C 91% 1001.4 hPa 0 mm - 132 W/m² -
1777068160 19.44° C 92% 1001.5 hPa 0 mm - 184 W/m² -
1777067855 18.89° C 93% 1001.8 hPa 0 mm - 226 W/m² -
1777067554 17.78° C 94% 1001.8 hPa 0 mm - 316 W/m² -
1777067252 17.78° C 95% 1001.8 hPa 0 mm - 314 W/m² -

* Rain latest hour (hover to see other rain measurements)
** Current wind speed in m/s (hover to see current wind gust speed)